Regional Weather Roundup
Issued by NWS

Home | Current Version | Previous Version | Graphics & Text | Print | Product List | Glossary On
Versions: 1 2 3 4 5 6 7 8 9 10 11 12 13 14 15 16 17 18 19 20 21 22 23 24 25 26 27 28 29 30 31 32 33 34 35 36 37 38 39 40 41 42 43 44 45 46 47
000
ASUS43 KDMX 201907
RWRIA

WEATHER ROUNDUP FOR IOWA
NATIONAL WEATHER SERVICE DES MOINES IA
200 PM CDT SAT SEP 20 2014

NOTE: "FAIR" INDICATES FEW OR NO CLOUDS BELOW 12,000 FEET WITH NO
SIGNIFICANT WEATHER AND/OR OBSTRUCTIONS TO VISIBILITY.

* - THESE STATIONS ARE NOT NWS STATIONS...THUS NOT UNDER NWS
QUALITY CONTROL.  THEY ALSO DO NOT REPORT WEATHER SUCH
AS PRECIPITATION OR FOG.

IAZ001>003-012>014-020>022-031>034-043>046-202000-
   NORTHWEST IOWA

CITY           SKY/WX    TMP DP  RH WIND       PRES   REMARKS
CARROLL *      SUNNY     81  63  54 W12G20    29.90S HX  82
CHEROKEE *     SUNNY     81  57  44 NW9G16    29.89F HX  81
DENISON *      SUNNY     79  61  53 W10       29.90S HX  80
LE MARS *      SUNNY     81  59  47 W9G18     29.91F HX  81
ORANGE CITY *  SUNNY     81  54  39 NW14G22   29.91F HX  80
SHELDON *      SUNNY     81  59  47 W13       29.88F HX  81
SIOUX CITY     SUNNY     83  59  44 NW8       29.92S HX  83
SPENCER        SUNNY     81  56  42 W18G24    29.87F HX  81
STORM LAKE *   SUNNY     79  63  57 NW14G21   29.90F HX  80
$$

IAZ055>058-069>071-079>083-090>094-202000-
   SOUTHWEST IOWA

CITY           SKY/WX    TMP DP  RH WIND       PRES   REMARKS
ATLANTIC *     SUNNY     81  68  65 W13       29.90F HX  83
AUDUBON *      SUNNY     82  61  47 W8        29.92S HX  83
CLARINDA *     SUNNY     81  68  65 SW13G20   29.94S HX  83
COUNCIL BLFS * SUNNY     82  68  61 VRB7G14   29.92S HX  85
CRESTON *      MOSUNNY   79  68  69 W10G21    29.92S HX  81
HARLAN  *      SUNNY     81  66  61 W10G18    29.95S HX  83
LAMONI         PTSUNNY   76  68  76 W12       29.93S
RED OAK *      SUNNY     79  68  69 W13       29.93R HX  81
SHENANDOAH *   SUNNY     79  70  73 SW16      29.93F HX  81
$$

IAZ047>049-059>061-072>074-084-202000-
   CENTRAL IOWA

CITY           SKY/WX    TMP DP  RH WIND       PRES   REMARKS
AMES           SUNNY     81  63  54 W14G23    29.86R HX  82
ANKENY *       SUNNY     79  64  61 SW12      29.87R HX  81
CHARITON *     SUNNY     79  66  65 VRB8G15   29.90F HX  81
DES MOINES     MOSUNNY   82  65  56 W13       29.87R HX  84
GRINNELL*      PTSUNNY   77  66  69 W12G17    29.86S
KNOXVILLE *    MOSUNNY   77  66  69 SW12      29.86F
MARSHALLTOWN   SUNNY     79  64  60 W13       29.84S HX  81
PELLA *        PTSUNNY   79  68  69 SW7       29.87F HX  81
PERRY *          N/A     82  59  44 W10G20    29.88S HX  82
$$

IAZ004>006-015-016-023>025-035-036-202000-
   NORTH CENTRAL IOWA

CITY           SKY/WX    TMP DP  RH WIND       PRES   REMARKS
ALGONA *       SUNNY     81  55  41 NW13G21   29.86F HX  80
CLARION *        N/A     79  59  50 W16G23    29.86S HX  80
ESTHERVILLE    MOSUNNY   79  55  43 NW14      29.85F
FORT DODGE *   SUNNY     81  61  50 W13G20    29.87F HX  81
MASON CITY     SUNNY     78  60  53 NW16      29.85F
FOREST CITY *  MOSUNNY   79  59  50 NW16      29.84F HX  80
IOWA FALLS *     N/A     81  61  50 W16G23    29.86S HX  81
$$

IAZ007>011-017>019-026>030-037>042-050>054-066-202000-
   NORTHEAST IOWA

CITY           SKY/WX    TMP DP  RH WIND       PRES   REMARKS
CEDAR RAPIDS   CLOUDY    73  70  90 SW8       29.83F
CHARLES CITY * SUNNY     77  61  57 NW17G24   29.83S
CLINTON *      PTSUNNY   70  66  88 SW8       29.90S
DECORAH *      SUNNY     77  63  61 W10G20    29.79S
DUBUQUE        CLOUDY    72  67  84 SW21G26   29.85R
MONTICELLO *   SUNNY     72  68  88 SW9       29.85R
OELWEIN *      SUNNY     75  64  69 W13G20    29.84S
WATERLOO       MOSUNNY   78  64  61 W10       29.81F HX  80
$$

IAZ064-065-067-068-078-202000-
   EAST CENTRAL IOWA

CITY           SKY/WX    TMP DP  RH WIND       PRES   REMARKS
DAVENPORT      PTSUNNY   74  66  76 W8        29.90R
IOWA CITY      LGT RAIN  74  70  87 S7        29.85F
MT. PLEASANT * PTSUNNY   79  66  65 W9        29.91R HX  81
MUSCATINE *    PTSUNNY   77  68  73 W8        29.89S
QUAD CITIES    CLOUDY    76  68  76 W7        29.87F
$$

IAZ062-063-075>077-085>089-095>099-202000-
   SOUTHEAST IOWA

CITY           SKY/WX    TMP DP  RH WIND       PRES   REMARKS
BURLINGTON     MOSUNNY   79  69  71 W12       29.90S HX  81
FAIRFIELD *    PTSUNNY   79  66  65 SW9G15    29.91S HX  81
FORT MADISON * PTSUNNY   79  68  69 W8G16     29.92S HX  81
KEOKUK *       PTSUNNY   77  70  78 W14G21    29.92S
OSKALOOSA *      N/A     79  68  69 SW12      29.86F HX  81
CENTERVILLE *  MOSUNNY   77  70  78 SW8       29.93F
OTTUMWA        PTSUNNY   79  68  69 SW13      29.88F HX  81
WASHINGTON *   MOSUNNY   77  68  73 W7        29.89F
$$

ABBREVIATIONS USED IN REMARKS
   TC - TEMPERATURES IN CELSIUS
  WCI - WIND CHILL INDEX
   HX - HEAT INDEX
  VSB - VISIBILITY
$$




USA.gov is the U.S. government's official web portal to all federal, state and local government web resources and services.